COSMOS 1275 DEB, 12780

Orbit data source: Space-Track

COSMOS 1275 DEB, 12780 is space debris in LEO originally from a launch on Thu, 04 Jun 1981 UTC launched from the Plesetsk Missile And Space Complex (PKMTR). Debris objects in space refer to the collection of defunct objects orbiting the Earth. Examples of debris include non-operational satellites, rocket bodies, and fragments generated from explosions, collisions, or faulty payload assembly.

Loading next visibility...
Identifier
12780, 1981-053DW
Orbit
LEO
Country
Flag of CISCIS
Related business
Manufacturer
Unknown
Mission
Spacecraft
Bus & Motor
Unknown
Mass
Unknown
Launch date (UTC)
1981-06-04 (45 years ago)
Launch vehicle
Unknown
Launch site
Plesetsk Missile And Space Complex (PKMTR)
Object type
Payload
Rocket body
Debris
Shape & HBR
Unknown shape, 0.3 m
Radar Cross Section
Medium (>0.1 m² and <1 m²)

Expand to show TLE details & history
Last TLE update: 23 hours ago

TLE from 23 hours ago
0 COSMOS 1275 DEB
1 12780U 81053DW  26022.88261317  .00001260  00000-0  98415-3 0  9992
2 12780  82.9471 185.0798 0022882 199.1733 326.2169 13.91380211244912
Epoch: 2026-01-22T21:10Z
TLE epoch observation values (Epoch: 2026-01-22T21:10:57.777Z)
Latitude
14.61459°
Longitude
-76.72937°
Altitude
912.128 km
Speed
7.404 km/s
True Right ascension
00h 12m 57s
True Declination
14° 31' 57"
Sunlit
Object was in daylight at epoch
Visualization orbit readout
Latitude
Unknown
Longitude
Unknown
Altitude
Unknown
Speed
Unknown
Apparent Right ascension
Unknown
Apparent Declination
Unknown
Sunlit
N/A
Visualization observer readout
Local Sidereal Time
21:04:53
Azimuth
Unknown
Elevation
Unknown
Doppler factor
Unknown
Orbital elements
Apogee altitude
937.626 km
Perigee altitude
904.222 km
Semi-major axis
7,299.061 km
Eccentricity
0.00229
Inclination
82.9471°
RAAN
185.0798°
Arg. of periapsis
199.1733°
True anomaly
326.07075°
Mean anomaly
326.2169°
Eccentric anomaly
326.14386°
Mean motion
3.48051 °/min
Orbital period
103.43 mins
BSTAR
0.00098415
Loading maneuver chart data...
Computing Atmospheric mass density...
Loading historical data...
Loading historical data...
Loading historical data...
Loading historical data...
Loading historical data...
Loading historical data...
Loading historical data...

Documentation

Showing up to 5 results
|